Location: Riverside Cemetery
(38.3047°N, 99.7773°W)
Time: 01:20:05
(UTC+00:00)

CZ-4 R/B - Pass Details

Date: 19 September 2020
Orbit: 530 x 600 km, 97.7° (Epoch: 23 October)

Event Time Altitude Azimuth Distance (km) Brightness Sun altitude
Rises 01:05:53 0° 162° (SSE) 2,830 4.7 -5.6°
Reaches altitude 10° 01:08:02 10° 160° (SSE) 1,934 3.8 -6.0°
Maximum altitude 01:12:14 74° 76° (ENE) 629 1.5 -6.9°
Drops below altitude 10° 01:16:27 10° 352° (N) 1,942 4.3 -7.7°
Sets 01:18:37 0° 350° (N) 2,843 5.2 -8.1°
